| time (UTC) | temp F | wind direction | speed knots | gust knots | rain 1hr in | rain 24hr in | rain mn in | humidity % | barometer mb |
| 20260506020001 | 50 | 34 | 3.5 | 5.2 | 0.00 | 0.03 | 0.00 | 73 | 1012.5 |
| 20260506014501 | 50 | 321 | 0.0 | 7.0 | 0.00 | 0.03 | 0.00 | 71 | 1012.5 |
| 20260506013001 | 50 | 358 | 1.7 | 3.5 | 0.00 | 0.03 | 0.00 | 70 | 1011.5 |
| 20260506011501 | 50 | 271 | 3.5 | 5.2 | 0.00 | 0.03 | 0.00 | 71 | 1011.5 |
| 20260506010001 | 50 | 3 | 0.0 | 3.5 | 0.00 | 0.03 | 0.00 | 71 | 1011.5 |
| 20260506004501 | 50 | 20 | 5.2 | 7.0 | 0.00 | 0.03 | 0.00 | 71 | 1011.5 |
| 20260506003001 | 51 | 323 | 1.7 | 3.5 | 0.00 | 0.03 | 0.00 | 71 | 1011.5 |
| 20260506001501 | 51 | 67 | 1.7 | 9.6 | 0.00 | 0.03 | 0.00 | 71 | 1011.5 |
| 20260506000001 | 51 | 313 | 5.2 | 5.2 | 0.00 | 0.03 | 0.00 | 70 | 1011.5 |
| 20260505234501 | 51 | 178 | 5.2 | 7.0 | 0.00 | 0.03 | 0.00 | 69 | 1011.5 |
| 20260505233001 | 51 | 317 | 3.5 | 7.0 | 0.00 | 0.03 | 0.00 | 67 | 1011.5 |
| 20260505231501 | 52 | 256 | 3.5 | 7.0 | 0.00 | 0.03 | 0.00 | 67 | 1010.5 |
| 20260505224501 | 53 | 314 | 1.7 | 9.6 | 0.00 | 0.03 | 0.00 | 66 | 1010.5 |
| 20260505223001 | 53 | 264 | 1.7 | 7.0 | 0.00 | 0.03 | 0.00 | 65 | 1010.5 |
| 20260505221501 | 53 | 197 | 3.5 | 3.5 | 0.00 | 0.03 | 0.00 | 64 | 1009.5 |
| 20260505220001 | 53 | 156 | 7.0 | 7.0 | 0.00 | 0.03 | 0.00 | 64 | 1009.5 |
| 20260505214501 | 53 | 4 | 9.6 | 11.3 | 0.00 | 0.03 | 0.00 | 64 | 1009.5 |
| 20260505213001 | 54 | 46 | 11.3 | 11.3 | 0.00 | 0.03 | 0.00 | 63 | 1009.5 |
| 20260505211501 | 54 | 340 | 5.2 | 7.0 | 0.00 | 0.03 | 0.00 | 64 | 1009.5 |
| 20260505210001 | 54 | 274 | 3.5 | 7.0 | 0.00 | 0.03 | 0.00 | 64 | 1009.5 |
| 20260505204501 | 54 | 36 | 7.0 | 7.0 | 0.00 | 0.03 | 0.00 | 64 | 1009.5 |
| 20260505203001 | 54 | 35 | 3.5 | 5.2 | 0.00 | 0.03 | 0.00 | 65 | 1009.5 |
| 20260505201501 | 54 | 302 | 7.0 | 7.0 | 0.00 | 0.03 | 0.00 | 65 | 1009.5 |
| 20260505200001 | 54 | 320 | 7.0 | 19.1 | 0.00 | 0.03 | 0.00 | 65 | 1009.5 |
| 20260505194501 | 54 | 5 | 5.2 | 7.0 | 0.00 | 0.03 | 0.00 | 65 | 1009.5 |
| 20260505193001 | 55 | 31 | 3.5 | 5.2 | 0.00 | 0.03 | 0.00 | 67 | 1009.5 |
| 20260505191501 | 55 | 24 | 3.5 | 7.0 | 0.00 | 0.03 | 0.00 | 67 | 1009.5 |
| 20260505190001 | 55 | 96 | 7.0 | 11.3 | 0.00 | 0.03 | 0.00 | 67 | 1008.5 |
| 20260505184501 | 55 | 310 | 3.5 | 5.2 | 0.00 | 0.03 | 0.00 | 67 | 1008.5 |
| 20260505183001 | 56 | 43 | 3.5 | 9.6 | 0.00 | 0.03 | 0.00 | 65 | 1008.5 |
| 20260505181501 | 55 | 58 | 5.2 | 14.8 | 0.00 | 0.03 | 0.00 | 67 | 1008.5 |
| 20260505180001 | 55 | 357 | 9.6 | 14.8 | 0.00 | 0.03 | 0.00 | 68 | 1008.5 |
| 20260505174501 | 55 | 255 | 5.2 | 7.0 | 0.00 | 0.03 | 0.00 | 71 | 1008.5 |
| 20260505173001 | 55 | 69 | 1.7 | 9.6 | 0.00 | 0.03 | 0.00 | 73 | 1008.5 |
| 20260505171501 | 55 | 17 | 11.3 | 13.0 | 0.00 | 0.03 | 0.00 | 73 | 1007.5 |
| 20260505170002 | 55 | 42 | 7.0 | 11.3 | 0.00 | 0.03 | 0.00 | 74 | 1007.5 |
| 20260505164501 | 55 | 352 | 7.0 | 9.6 | 0.00 | 0.03 | 0.00 | 75 | 1007.5 |
| 20260505163001 | 55 | 39 | 1.7 | 9.6 | 0.00 | 0.03 | 0.00 | 76 | 1007.5 |
| 20260505161501 | 55 | 294 | 1.7 | 22.6 | 0.00 | 0.03 | 0.00 | 77 | 1006.4 |
| 20260505153001 | 56 | 315 | 0.0 | 1.7 | 0.00 | 0.03 | 0.00 | 83 | 1006.4 |
| 20260505151501 | 57 | 15 | 3.5 | 14.8 | 0.00 | 0.03 | 0.00 | 81 | 1006.4 |
| 20260505124501 | 65 | 14 | 3.5 | 9.6 | 0.00 | 0.03 | 0.00 | 79 | 1004.7 |
| 20260505123001 | 65 | 94 | 3.5 | 7.0 | 0.00 | 0.03 | 0.00 | 76 | 1004.7 |
| 20260505121501 | 65 | 264 | 1.7 | 1.7 | 0.00 | 0.03 | 0.00 | 77 | 1004.7 |
| 20260505120001 | 65 | 64 | 0.0 | 1.7 | 0.00 | 0.03 | 0.00 | 79 | 1004.7 |
| 20260505114501 | 65 | 73 | 3.5 | 3.5 | 0.00 | 0.03 | 0.00 | 79 | 1003.7 |
| 20260505113002 | 65 | 86 | 3.5 | 3.5 | 0.00 | 0.03 | 0.00 | 79 | 1003.7 |
| 20260505111502 | 65 | 81 | 1.7 | 3.5 | 0.00 | 0.03 | 0.00 | 79 | 1003.7 |
| 20260505101501 | 64 | 92 | 5.2 | 7.0 | 0.00 | 0.03 | 0.00 | 80 | 1003.7 |
| 20260505100001 | 64 | 332 | 1.7 | 7.0 | 0.00 | 0.03 | 0.00 | 80 | 1003.7 |
| 20260505094501 | 65 | 46 | 9.6 | 5.2 | 0.00 | 0.03 | 0.00 | 80 | 1003.7 |
| 20260505093001 | 65 | 78 | 13.0 | 17.4 | 0.00 | 0.03 | 0.00 | 79 | 1002.7 |
| 20260505091501 | 65 | 72 | 9.6 | 9.6 | 0.00 | 0.03 | 0.00 | 79 | 1003.7 |
| 20260505090001 | 65 | 51 | 1.7 | 5.2 | 0.00 | 0.03 | 0.00 | 77 | 1002.7 |
| 20260505084501 | 65 | 93 | 0.0 | 5.2 | 0.00 | 0.03 | 0.00 | 77 | 1002.7 |
| 20260505083002 | 65 | 75 | 9.6 | 9.6 | 0.00 | 0.03 | 0.00 | 75 | 1002.7 |
| 20260505081501 | 65 | 84 | 3.5 | 7.0 | 0.00 | 0.03 | 0.00 | 74 | 1002.7 |
| 20260505080001 | 65 | 99 | 7.0 | 7.0 | 0.00 | 0.03 | 0.00 | 74 | 1002.7 |
| 20260505074501 | 65 | 40 | 5.2 | 7.0 | 0.00 | 0.03 | 0.00 | 73 | 1003.7 |
| 20260505073001 | 65 | 75 | 7.0 | 19.1 | 0.00 | 0.03 | 0.00 | 74 | 1003.7 |
| 20260505071501 | 67 | 74 | 5.2 | 11.3 | 0.00 | 0.03 | 0.00 | 72 | 1003.7 |
| 20260505070001 | 67 | 98 | 5.2 | 5.2 | 0.00 | 0.03 | 0.00 | 74 | 1003.7 |
| 20260505064506 | 67 | 140 | 3.5 | 11.3 | 0.00 | 0.03 | 0.00 | 75 | 1004.7 |
| 20260505063001 | 66 | 74 | 0.0 | 3.5 | 0.00 | 0.03 | 0.00 | 75 | 1004.7 |
| 20260505061501 | 66 | 105 | 3.5 | 7.0 | 0.00 | 0.03 | 0.00 | 77 | 1004.7 |
| 20260505060001 | 66 | 355 | 3.5 | 3.5 | 0.00 | 0.03 | 0.00 | 76 | 1004.7 |
| 20260505053001 | 66 | 14 | 3.5 | 3.5 | 0.00 | 0.03 | 0.00 | 79 | 1004.7 |
| 20260505051501 | 67 | 345 | 1.7 | 3.5 | 0.00 | 0.03 | 0.00 | 79 | 1003.7 |
| 20260505041502 | 69 | 95 | 3.5 | 1.7 | 0.03 | 0.03 | 0.00 | 68 | 1003.7 |
| 20260505040001 | 69 | 92 | 7.0 | 7.0 | 0.02 | 0.02 | 0.00 | 66 | 1003.7 |
| 20260505034501 | 69 | 154 | 3.5 | 7.0 | 0.02 | 0.02 | 0.00 | 70 | 1003.7 |
| 20260505033002 | 71 | 153 | 7.0 | 9.6 | 0.00 | 0.00 | 0.00 | 59 | 1004.7 |
| 20260505031501 | 71 | 99 | 5.2 | 7.0 | 0.00 | 0.00 | 0.00 | 58 | 1003.7 |
| 20260505030001 | 72 | 60 | 5.2 | 7.0 | 0.00 | 0.00 | 0.00 | 57 | 1003.7 |
| 20260505024501 | 72 | 138 | 5.2 | 5.2 | 0.00 | 0.00 | 0.00 | 57 | 1004.7 |
| 20260505023001 | 73 | 140 | 3.5 | 3.5 | 0.00 | 0.00 | 0.00 | 57 | 1004.7 |
| 20260505021501 | 73 | 156 | 3.5 | 3.5 | 0.00 | 0.00 | 0.00 | 57 | 1004.7 |